Simultaneous Nadir Overpasses (SNOs) Predictions

Prediction of SNOs between NOAA-19 and TERRA Satellite Orbit:

Table of predicted SNOs for the next 14.0 days since TLE Epoch: 10/17/2015
Index Date (NOAA-19) Time (NOAA-19) Lat,Lon (NOAA-19) SZA (NOAA-19 ) Date (TERRA) Time (TERRA) Lat,Lon (TERRA) SZA (TERRA ) Distance(km) Time Diff (sec)
1 10/19/2015 01:10:04 72.64, 167.30 82.54 10/19/2015 01:10:54 72.66, 167.23 82.55 2.83 50
2 10/19/2015 02:00:58 -72.60, -25.33 97.50 10/19/2015 02:00:23 -72.59, -25.26 97.51 2.19 35
3 10/21/2015 06:44:14 -72.65, -96.21 96.66 10/21/2015 06:44:41 -72.65, -96.23 96.65 0.92 27
4 10/21/2015 07:35:20 72.57, 71.18 83.29 10/21/2015 07:34:08 72.56, 71.25 83.27 2.32 72
5 10/23/2015 11:27:42 -73.29,-168.42 95.29 10/23/2015 11:28:50 -73.18,-166.28 95.30 70.00 68
6 10/23/2015 12:18:36 72.62, 0.29 84.12 10/23/2015 12:18:26 72.61, 0.26 84.11 1.29 10
7 10/23/2015 13:09:14 -71.78, 169.27 96.63 10/23/2015 13:08:08 -71.86, 166.54 96.69 95.48 66
8 10/25/2015 17:01:52 72.68, -70.61 84.94 10/25/2015 17:02:43 72.71, -70.64 84.97 3.20 51
9 10/25/2015 17:52:45 -72.59, 96.86 95.14 10/25/2015 17:52:13 -72.60, 96.78 95.14 2.84 32
10 10/27/2015 22:36:02 -72.70, 25.85 94.28 10/27/2015 22:36:30 -72.68, 25.87 94.30 2.05 28
11 10/27/2015 23:27:07 72.58,-166.66 85.62 10/27/2015 23:25:57 72.59,-166.67 85.62 1.20 70
12 10/30/2015 03:19:30 -73.36, -46.39 92.95 10/30/2015 03:20:38 -73.23, -44.13 92.97 73.83 68
13 10/30/2015 04:10:23 72.65, 122.41 86.42 10/30/2015 04:10:14 72.66, 122.40 86.43 1.42 9




NCC Satellite Simultaneous Nadir Overpasses (SNOs) Prediction Service
